{"data":{"norad_id":66648,"intl_designator":"2025-273B","name":"COSMOS 2598 (RODNIK-S *)","alt_names":[],"object_type":"PAYLOAD","status":"ACTIVE","operator":null,"country":"CIS","launch_date":"2025-11-25","launch_site_code":"PLMSC","launch_vehicle":null,"mission":null,"orbit_class":"UNKNOWN","rcs_meters":null,"size_class":null,"mass_kg":null,"dimensions":null,"purposes":[],"wikipedia_slug":null,"has_3d_model":false,"image_url":null,"decayed_at":null,"tle_current":{"epoch":"2026-05-25T02:34:30.425376Z","epoch_age_seconds":59810,"freshness":"FRESH","line1":"1 66648U 25273B   26145.10729659  .00000015  00000+0  36522-4 0  9993","line2":"2 66648  82.5036 184.8926 0009773 231.5023 128.5181 12.42917888 22433","mean_motion":12.42917888,"eccentricity":0.0009773,"inclination_deg":82.5036,"raan_deg":184.8926,"arg_perigee_deg":231.5023,"mean_anomaly_deg":128.5181,"bstar":3.6522e-5,"rev_number":2243,"period_min":115.85640643704,"perigee_km":1486.5644088629,"apogee_km":1501.9517923265,"semimajor_km":7872.3951005947,"source":"CELESTRAK","updated_at":"2026-05-25T13:38:06.378710Z"}}}